Location: Unspecified
(0.0000°N, 0.0000°E)
Time: 10:41:07
(UTC+00:00)

Vanguard 1 Rocket - Visible Passes

Search period start: 16 June 2025 00:00
Search period end: 26 June 2025 00:00
Orbit: 651 x 4216 km, 34.3° (Epoch: 15 June)

Date Brightness Start Highest point End Pass type
(mag) Time Alt. Az. Time Alt. Az. Time Alt. Az.
16 Jun 10.8 18:48:51 10° SW 18:57:08 13° SSW 19:03:48 10° S visible
17 Jun 10.7 20:13:18 10° SSW 20:16:00 11° S 20:16:47 11° S visible
18 Jun 10.7 18:51:08 10° SW 18:59:08 13° S 19:05:34 10° SSE visible
19 Jun 10.6 20:11:38 10° SSW 20:17:33 13° S 20:17:33 13° S visible
20 Jun 10.6 18:52:19 10° SSW 19:01:11 14° S 19:08:05 10° SSE visible
20 Jun 10.9 21:26:06 10° SSW 21:26:36 11° SSW 21:26:36 11° SSW visible
21 Jun 10.4 20:10:36 10° SSW 20:18:29 17° S 20:18:29 17° S visible
22 Jun 10.5 18:52:41 10° SSW 19:03:11 16° S 19:10:24 11° SE visible
22 Jun 10.7 21:25:18 10° SSW 21:27:37 15° SSW 21:27:37 15° SSW visible
23 Jun 10.2 20:09:44 10° SSW 20:19:35 22° S 20:19:35 22° S visible
24 Jun 10.3 18:52:32 10° SSW 19:05:03 19° S 19:11:38 14° SE visible
24 Jun 10.5 21:24:43 10° SW 21:28:51 19° SSW 21:28:51 19° SSW visible
25 Jun 9.9 20:08:58 10° SSW 20:20:57 29° S 20:20:57 29° S visible
